[[{"header":{"parameterUnit":"m.s-1","parameterCategory":1,"la1":30.2992,"la2":30.254,"lo1":-89.0895,"lo2":-89.0443,"dy":0.0025,"dx":0.0025,"nx":19,"ny":19,"refTime":"2026-03-16T21:00:00:Z","depth":0,"parameterNumber":2,"parameterNumberName":"U-component_of_WINDS"},"data":[0,0,0,-3.1265,-3.1266,-3.129,-3.129,-3.1353,-3.1354,0,0,0,0,0,0,0,0,0,0,0,-3.1275,-3.1276,-3.1265,-3.1266,-3.129,-3.129,-3.1353,-3.1354,0,0,0,0,0,0,0,0,0,0,0,-3.1275,-3.1276,-3.1277,-3.1266,-3.129,-3.129,-3.1353,-3.1323,0,0,0,0,0,0,0,0,0,0,-3.1295,-3.1321,-3.1276,-3.1277,-3.1266,-3.129,-3.129,-3.1321,-3.1325,-3.1356,0,-3.1385,0,-3.1371,-3.136,-3.136,0,0,0,-3.1253,-3.1318,-3.1309,-3.1278,-3.1267,-3.129,-3.1275,-3.1323,-3.1327,-3.1361,-3.1386,-3.1388,-3.1372,-3.1361,-3.1361,-3.1577,-3.1579,0,0,-3.1251,-3.1289,-3.1306,-3.1312,-3.1308,-3.1275,-3.1276,-3.1325,-3.1356,-3.1386,-3.1388,-3.1373,-3.1361,-3.1362,-3.1576,-3.1578,0,0,0,-3.1256,-3.1289,-3.1277,-3.131,-3.1312,-3.1276,-3.1277,-3.1354,-3.1347,-3.1389,-3.1374,-3.1362,-3.1363,-3.1574,-3.1576,-3.1693,0,0,0,-3.1255,-3.1292,-3.1278,-3.1301,-3.1312,-3.1333,-3.1305,-3.1343,-3.1348,-3.1373,-3.1362,-3.1364,-3.1572,-3.1575,-3.1686,-3.1742,0,0,0,-3.1268,-3.1293,-3.1302,-3.1303,-3.1315,-3.1331,-3.1326,-3.1343,-3.1339,-3.136,-3.1364,-3.1571,-3.1574,-3.168,-3.1732,-3.1812,0,0,0,-3.1292,-3.1405,-3.1305,-3.1425,-3.1315,-3.1403,-3.1326,-3.1389,-3.1422,-3.1362,-3.1572,-3.1576,-3.1678,-3.1725,-3.1805,-3.1886,-3.1923,0,0,-3.1456,-3.1426,-3.1494,-3.1405,-3.1521,-3.1396,-3.153,-3.1523,-3.1491,-3.1551,-3.1556,-3.1689,-3.1731,-3.181,-3.2116,-3.2146,0,0,0,-3.1559,-3.1608,-3.1631,-3.1663,-3.1661,-3.1665,-3.1634,-3.1633,-3.1682,-3.1529,-3.1737,-3.1761,-3.1807,-3.1844,-3.1869,-3.1906,-3.1594,-3.1594,-3.1594,-3.1844,-3.1797,-3.1907,-3.1865,-3.1898,-3.1866,-3.189,-3.1882,-3.1824,-3.1875,-3.1893,-3.2084,-3.2129,-3.2147,-3.2187,-3.1931,-3.1931,-3.1932,-3.1932,-3.208,-3.2143,-3.2066,-3.2146,-3.2097,-3.2164,-3.214,-3.2098,-3.2155,-3.2066,-3.2103,-3.2011,-3.2181,-3.2213,-3.194,-3.1939,-3.1938,-3.1937,-3.1937,-3.2261,-3.2284,-3.228,-3.2324,-3.2365,-3.2318,-3.2377,-3.233,-3.2287,-3.2324,-3.2339,-3.2337,-3.233,-3.2334,-3.2335,-3.2336,-3.2336,-3.2337,-3.2337,-3.2451,-3.2443,-3.2498,-3.2508,-3.2525,-3.2541,-3.2514,-3.2529,-3.2535,-3.2496,-3.2496,-3.2436,-3.2206,-3.215,-3.2347,-3.2345,-3.2344,-3.2343,-3.2342,-3.2708,-3.2643,-3.2728,-3.2745,-3.2755,-3.28,-3.274,-3.2777,-3.2783,-3.2815,-3.2747,-3.2584,-3.2551,-3.253,-3.2484,-3.2755,-3.2755,-3.2755,-3.2755,-3.2862,-3.2841,-3.2918,-3.2949,-3.2974,-3.293,-3.303,-3.3012,-3.2983,-3.2985,-3.2939,-3.2873,-3.2855,-3.2832,-3.2805,-3.2761,-3.3097,-3.3097,-3.3098,-3.3018,-3.2998,-3.3091,-3.3061,-3.3067,-3.3074,-3.3168,-3.3209,-3.3162,-3.3111,-3.2986,-3.2972,-3.2865,-3.2832,-3.2777,-3.2736,-3.2653,0,0]},{"header":{"parameterUnit":"m.s-1","parameterCategory":1,"la1":30.2992,"la2":30.254,"lo1":-89.0895,"lo2":-89.0443,"dy":0.0025,"dx":0.0025,"nx":19,"ny":19,"refTime":"2026-03-16T21:00:00:Z","depth":0,"parameterNumber":3,"parameterNumberName":"V-component_of_WINDS"},"data":[0,0,0,1.1587,1.1585,1.1475,1.1475,1.1338,1.1337,0,0,0,0,0,0,0,0,0,0,0,1.1624,1.1623,1.1587,1.1585,1.1475,1.1475,1.1338,1.1337,0,0,0,0,0,0,0,0,0,0,0,1.1624,1.1623,1.1622,1.1584,1.1475,1.1474,1.1338,1.1419,0,0,0,0,0,0,0,0,0,0,1.1525,1.1564,1.1624,1.1622,1.1584,1.1475,1.1474,1.1423,1.1414,1.139,0,1.1372,0,1.1352,1.1328,1.1328,0,0,0,1.158,1.1571,1.1538,1.1622,1.1583,1.1475,1.1523,1.1418,1.1408,1.1378,1.137,1.1364,1.135,1.1327,1.1327,1.1207,1.1206,0,0,1.1586,1.1606,1.1545,1.1532,1.1552,1.1527,1.152,1.1412,1.1403,1.1369,1.1361,1.1348,1.1326,1.1325,1.1207,1.1207,0,0,0,1.1607,1.161,1.158,1.1538,1.1518,1.1524,1.1516,1.1407,1.1396,1.136,1.1346,1.1326,1.1324,1.1207,1.1207,1.1208,0,0,0,1.161,1.1622,1.1582,1.1593,1.152,1.1462,1.1514,1.1404,1.1391,1.1347,1.1326,1.1323,1.1208,1.1207,1.1209,1.1204,0,0,0,1.1629,1.1624,1.161,1.1594,1.1548,1.1463,1.1445,1.14,1.1383,1.1328,1.1323,1.1208,1.1207,1.121,1.1206,1.1178,0,0,0,1.1655,1.1611,1.1611,1.1557,1.1549,1.1466,1.1446,1.1382,1.1335,1.1325,1.1208,1.1207,1.121,1.1206,1.1179,1.1158,1.1152,0,0,1.161,1.1606,1.1573,1.157,1.1492,1.1481,1.1402,1.1339,1.1315,1.1244,1.124,1.1209,1.1206,1.1179,1.1111,1.1106,0,0,0,1.1565,1.1542,1.1517,1.1475,1.1428,1.1387,1.1335,1.1311,1.1251,1.1283,1.1192,1.1189,1.1172,1.1161,1.1157,1.1141,1.1203,1.1203,1.1203,1.1528,1.1502,1.1446,1.1407,1.1366,1.1314,1.1278,1.1237,1.1221,1.12,1.1178,1.1141,1.1129,1.1125,1.1109,1.1166,1.1166,1.1166,1.1166,1.1459,1.1421,1.1404,1.1343,1.1315,1.1262,1.1211,1.1202,1.1147,1.1155,1.1139,1.1148,1.1121,1.1105,1.1166,1.1166,1.1166,1.1166,1.1166,1.1431,1.1408,1.1383,1.132,1.1274,1.1236,1.1186,1.1162,1.1139,1.1123,1.1097,1.1097,1.1093,1.1113,1.1113,1.1113,1.1113,1.1113,1.1113,1.141,1.1382,1.1344,1.1292,1.1263,1.122,1.117,1.1139,1.1098,1.1085,1.1084,1.107,1.1124,1.1137,1.111,1.1111,1.1111,1.1111,1.1111,1.1347,1.1358,1.1299,1.127,1.1208,1.1164,1.1136,1.1075,1.1047,1.1022,1.1012,1.1057,1.105,1.1053,1.1064,1.1019,1.1019,1.1019,1.1019,1.1322,1.1317,1.1252,1.1207,1.116,1.1129,1.1061,1.1022,1.0981,1.0962,1.0965,1.0978,1.0983,1.0973,1.0978,1.0987,1.0924,1.0924,1.0924,1.1281,1.1271,1.1219,1.1183,1.1133,1.1091,1.1026,1.0973,1.093,1.0919,1.0945,1.0949,1.097,1.0978,1.0966,1.0974,1.0991,0,0]}]]